TimeAKDT,TemperatureF,Dew PointF,Humidity,Sea Level PressureIn,VisibilityMPH,Wind Direction,Wind SpeedMPH,Gust SpeedMPH,PrecipitationIn,Events,Conditions,WindDirDegrees,DateUTC
12:16 AM,51.8,44.6,76,29.77,10.0,NE,6.9,-,N/A,,Overcast,50,2013-08-20 08:16:00
12:36 AM,51.8,44.6,76,29.77,10.0,NE,6.9,-,N/A,,Overcast,50,2013-08-20 08:36:00
12:56 AM,51.8,44.6,76,29.76,10.0,ENE,4.6,-,N/A,,Overcast,60,2013-08-20 08:56:00
1:16 AM,51.8,44.6,76,29.76,10.0,ENE,6.9,-,N/A,,Overcast,60,2013-08-20 09:16:00
1:36 AM,51.8,44.6,76,29.76,10.0,ENE,5.8,-,N/A,,Overcast,60,2013-08-20 09:36:00
1:56 AM,51.8,44.6,76,29.76,10.0,NE,3.5,-,N/A,,Overcast,50,2013-08-20 09:56:00
2:16 AM,51.8,44.6,76,29.77,10.0,ENE,5.8,-,N/A,,Overcast,60,2013-08-20 10:16:00
2:36 AM,51.8,44.6,76,29.77,10.0,Calm,Calm,-,N/A,,Overcast,0,2013-08-20 10:36:00
2:56 AM,51.8,44.6,76,29.77,10.0,NE,4.6,-,N/A,,Overcast,40,2013-08-20 10:56:00
3:16 AM,51.8,44.6,76,29.77,10.0,ENE,3.5,-,N/A,,Overcast,60,2013-08-20 11:16:00
3:36 AM,51.8,44.6,76,29.77,10.0,ENE,5.8,-,N/A,,Overcast,60,2013-08-20 11:36:00
3:56 AM,51.8,44.6,76,29.78,10.0,ENE,3.5,-,N/A,,Overcast,70,2013-08-20 11:56:00
4:16 AM,51.8,44.6,76,29.78,10.0,ENE,3.5,-,N/A,,Overcast,70,2013-08-20 12:16:00
4:36 AM,51.8,44.6,76,29.78,10.0,Calm,Calm,-,N/A,,Overcast,0,2013-08-20 12:36:00
4:56 AM,51.8,44.6,76,29.78,10.0,Calm,Calm,-,N/A,,Overcast,0,2013-08-20 12:56:00
5:16 AM,51.8,44.6,76,29.79,10.0,Calm,Calm,-,N/A,,Overcast,0,2013-08-20 13:16:00
5:36 AM,50.0,44.6,82,29.79,10.0,Calm,Calm,-,N/A,,Overcast,0,2013-08-20 13:36:00
5:56 AM,50.0,44.6,82,29.79,10.0,West,3.5,-,N/A,,Overcast,260,2013-08-20 13:56:00
6:16 AM,50.0,44.6,82,29.79,10.0,Calm,Calm,-,N/A,,Overcast,0,2013-08-20 14:16:00
6:36 AM,51.8,44.6,76,29.80,10.0,NNW,5.8,-,N/A,,Overcast,340,2013-08-20 14:36:00
6:56 AM,51.8,44.6,76,29.80,10.0,Calm,Calm,-,N/A,,Overcast,0,2013-08-20 14:56:00
7:16 AM,51.8,44.6,76,29.80,10.0,Calm,Calm,-,N/A,,Overcast,0,2013-08-20 15:16:00
7:36 AM,50.0,46.4,87,29.80,10.0,Calm,Calm,-,N/A,,Overcast,0,2013-08-20 15:36:00
7:56 AM,51.8,46.4,82,29.81,10.0,Calm,Calm,-,N/A,,Overcast,0,2013-08-20 15:56:00
8:16 AM,50.0,46.4,87,29.81,10.0,Calm,Calm,-,N/A,,Overcast,0,2013-08-20 16:16:00
8:36 AM,51.8,46.4,82,29.81,10.0,Calm,Calm,-,N/A,,Overcast,0,2013-08-20 16:36:00
8:56 AM,51.8,46.4,82,29.82,10.0,Calm,Calm,-,N/A,,Overcast,0,2013-08-20 16:56:00
9:16 AM,51.8,48.2,88,29.82,10.0,Calm,Calm,-,N/A,,Overcast,0,2013-08-20 17:16:00
9:36 AM,53.6,48.2,82,29.82,10.0,Calm,Calm,-,N/A,,Overcast,0,2013-08-20 17:36:00
9:56 AM,53.6,48.2,82,29.82,10.0,NNW,3.5,-,N/A,,Overcast,340,2013-08-20 17:56:00
10:16 AM,53.6,48.2,82,29.82,10.0,North,3.5,-,N/A,,Overcast,360,2013-08-20 18:16:00
10:36 AM,53.6,48.2,82,29.83,10.0,Calm,Calm,-,N/A,,Overcast,0,2013-08-20 18:36:00
10:56 AM,53.6,48.2,82,29.83,10.0,Calm,Calm,-,N/A,,Overcast,0,2013-08-20 18:56:00
11:16 AM,53.6,48.2,82,29.84,10.0,Calm,Calm,-,N/A,,Overcast,0,2013-08-20 19:16:00
11:36 AM,55.4,48.2,77,29.84,10.0,NNW,3.5,-,N/A,,Overcast,330,2013-08-20 19:36:00
11:56 AM,55.4,48.2,77,29.84,10.0,North,3.5,-,N/A,,Overcast,350,2013-08-20 19:56:00
12:16 PM,55.4,48.2,77,29.84,10.0,NE,5.8,-,N/A,,Overcast,40,2013-08-20 20:16:00
12:36 PM,55.4,48.2,77,29.83,10.0,ENE,6.9,-,N/A,,Overcast,60,2013-08-20 20:36:00
12:56 PM,55.4,48.2,77,29.83,10.0,ENE,5.8,-,N/A,,Overcast,60,2013-08-20 20:56:00
1:16 PM,55.4,48.2,77,29.83,10.0,ENE,4.6,-,N/A,,Overcast,70,2013-08-20 21:16:00
1:36 PM,57.2,48.2,72,29.83,10.0,ENE,5.8,-,N/A,,Overcast,60,2013-08-20 21:36:00
1:56 PM,57.2,48.2,72,29.84,10.0,NE,4.6,-,N/A,,Overcast,50,2013-08-20 21:56:00
2:16 PM,57.2,48.2,72,29.84,10.0,ENE,5.8,-,N/A,,Overcast,70,2013-08-20 22:16:00
2:36 PM,57.2,48.2,72,29.84,10.0,ENE,5.8,-,N/A,,Overcast,70,2013-08-20 22:36:00
2:56 PM,57.2,46.4,67,29.84,10.0,ENE,5.8,-,N/A,,Overcast,60,2013-08-20 22:56:00
3:16 PM,57.2,46.4,67,29.84,10.0,ENE,4.6,-,N/A,,Overcast,70,2013-08-20 23:16:00
3:36 PM,55.4,46.4,72,29.84,10.0,East,3.5,-,N/A,,Overcast,90,2013-08-20 23:36:00
3:56 PM,55.4,48.2,77,29.84,10.0,NE,5.8,-,N/A,,Overcast,50,2013-08-20 23:56:00
4:16 PM,55.4,48.2,77,29.84,10.0,ENE,4.6,-,N/A,,Overcast,70,2013-08-21 00:16:00
4:36 PM,55.4,48.2,77,29.84,10.0,ENE,3.5,-,N/A,,Overcast,70,2013-08-21 00:36:00
4:56 PM,53.6,48.2,82,29.83,10.0,Calm,Calm,-,0.01,,Overcast,0,2013-08-21 00:56:00
5:16 PM,53.6,48.2,82,29.83,10.0,Calm,Calm,-,N/A,,Overcast,0,2013-08-21 01:16:00
5:36 PM,55.4,50.0,82,29.83,10.0,Calm,Calm,-,N/A,,Overcast,0,2013-08-21 01:36:00
5:56 PM,53.6,50.0,88,29.83,8.0,Calm,Calm,-,N/A,,Overcast,0,2013-08-21 01:56:00
6:16 PM,53.6,48.2,82,29.83,10.0,Calm,Calm,-,0.01,,Overcast,0,2013-08-21 02:16:00
6:36 PM,53.6,50.0,88,29.83,6.0,Calm,Calm,-,0.03,,Overcast,0,2013-08-21 02:36:00
6:56 PM,53.6,50.0,88,29.83,8.0,Calm,Calm,-,0.06,,Overcast,0,2013-08-21 02:56:00
7:16 PM,53.6,50.0,88,29.83,3.0,Calm,Calm,-,0.02,,Overcast,0,2013-08-21 03:16:00
7:36 PM,53.6,50.0,88,29.83,6.0,Calm,Calm,-,0.10,,Overcast,0,2013-08-21 03:36:00
7:56 PM,53.6,50.0,88,29.83,6.0,Calm,Calm,-,0.11,,Overcast,0,2013-08-21 03:56:00
8:36 PM,53.6,50.0,88,29.83,5.0,Calm,Calm,-,0.01,,Overcast,0,2013-08-21 04:36:00
8:56 PM,53.6,50.0,88,29.83,10.0,NNE,3.5,-,0.01,,Overcast,30,2013-08-21 04:56:00
9:16 PM,53.6,50.0,88,29.84,5.0,Calm,Calm,-,N/A,,Overcast,0,2013-08-21 05:16:00
9:36 PM,53.6,50.0,88,29.84,8.0,Calm,Calm,-,0.01,,Overcast,0,2013-08-21 05:36:00
9:56 PM,53.6,50.0,88,29.84,10.0,Calm,Calm,-,0.01,,Mostly Cloudy,0,2013-08-21 05:56:00
10:16 PM,53.6,50.0,88,29.84,8.0,Calm,Calm,-,N/A,,Overcast,0,2013-08-21 06:16:00
10:36 PM,53.6,50.0,88,29.85,10.0,ENE,4.6,-,N/A,,Overcast,70,2013-08-21 06:36:00
10:56 PM,53.6,48.2,82,29.85,9.0,NE,5.8,-,N/A,,Overcast,40,2013-08-21 06:56:00
11:16 PM,53.6,48.2,82,29.85,10.0,Calm,Calm,-,N/A,,Overcast,0,2013-08-21 07:16:00
11:36 PM,53.6,48.2,82,29.85,10.0,East,3.5,-,N/A,,Overcast,80,2013-08-21 07:36:00
11:56 PM,53.6,48.2,82,29.85,10.0,ENE,4.6,-,N/A,,Overcast,70,2013-08-21 07:56:00